Location: Huntsville
(41.2590°N, 111.7678°W)
Time: 10:19:34
(UTC+00:00)

Courier 1B Rocket - Pass Details

Date: 15 June 2021
Orbit: 920 x 1202 km, 28.2° (Epoch: 29 July)

Event Time Altitude Azimuth Distance (km) Brightness Sun altitude
Rises 06:41:20 0° 249° (WSW) 3,565 7.9 -24.5°
Enters shadow 06:43:11 - 243° (WSW) 2,976 7.4 -24.6°
Reaches altitude 10° 06:44:26 10° 236° (SW) 2,607 - -24.6°
Maximum altitude 06:49:15 24° 185° (S) 1,814 - -24.8°
Drops below altitude 10° 06:54:06 10° 134° (SE) 2,623 - -25.0°
Sets 06:57:15 0° 121° (ESE) 3,592 - -25.0°
